29.03.2024;03:00;13,60
29.03.2024;02:45;13,60
29.03.2024;02:30;13,60
29.03.2024;02:15;13,60
29.03.2024;02:00;13,60
29.03.2024;01:45;13,60
29.03.2024;01:30;13,60
29.03.2024;01:15;13,60
29.03.2024;01:00;13,60
29.03.2024;00:45;13,60
29.03.2024;00:30;13,60
29.03.2024;00:15;13,60
29.03.2024;00:00;13,60
28.03.2024;23:45;13,60
28.03.2024;23:30;13,60
28.03.2024;23:15;13,60
28.03.2024;23:00;13,64
28.03.2024;22:45;13,60
28.03.2024;22:30;13,60
28.03.2024;22:15;13,64
28.03.2024;22:00;13,64
28.03.2024;21:45;13,60
28.03.2024;21:30;13,60
28.03.2024;21:15;13,60
28.03.2024;21:00;13,60
28.03.2024;20:45;13,60
28.03.2024;20:30;13,60
28.03.2024;20:15;13,60
28.03.2024;20:00;13,60
28.03.2024;19:45;13,60
28.03.2024;19:30;13,60
28.03.2024;19:15;13,60
28.03.2024;19:00;13,60
28.03.2024;18:45;13,64
28.03.2024;18:30;13,64
28.03.2024;18:15;13,64
28.03.2024;18:00;13,60
28.03.2024;17:45;13,60
28.03.2024;17:30;13,60
28.03.2024;17:15;13,64
28.03.2024;17:00;13,60
28.03.2024;16:45;13,60
28.03.2024;16:30;13,60
28.03.2024;16:15;13,60
28.03.2024;16:00;13,60
28.03.2024;15:45;13,60
28.03.2024;15:30;13,60
28.03.2024;15:15;13,60
28.03.2024;15:00;13,60
28.03.2024;14:45;13,60
28.03.2024;14:30;13,60
28.03.2024;14:15;13,60
28.03.2024;14:00;13,60
28.03.2024;13:45;13,60
28.03.2024;13:30;13,60
28.03.2024;13:15;13,60
28.03.2024;13:00;13,60
28.03.2024;12:45;13,60
28.03.2024;12:30;13,60
28.03.2024;12:15;13,60
28.03.2024;12:00;13,60
28.03.2024;11:45;13,60
28.03.2024;11:30;13,60
28.03.2024;11:15;13,60
28.03.2024;11:00;13,60
28.03.2024;10:45;13,60
28.03.2024;10:30;13,48
28.03.2024;10:15;13,57
28.03.2024;10:00;13,60
28.03.2024;09:45;13,60
28.03.2024;09:30;13,60
28.03.2024;09:15;13,60
28.03.2024;09:00;13,60
28.03.2024;08:45;13,60
28.03.2024;08:30;13,60
28.03.2024;08:15;13,60
28.03.2024;08:00;13,60
28.03.2024;07:45;13,60
28.03.2024;07:30;13,60
28.03.2024;07:15;13,60
28.03.2024;07:00;13,60
28.03.2024;06:45;13,60
28.03.2024;06:30;13,60
28.03.2024;06:15;13,60
28.03.2024;06:00;13,60
28.03.2024;05:45;13,60
28.03.2024;05:30;13,60
28.03.2024;05:15;13,60
28.03.2024;05:00;13,60
28.03.2024;04:45;13,60
28.03.2024;04:30;13,60
28.03.2024;04:15;13,60
28.03.2024;04:00;13,60
28.03.2024;03:45;13,60
28.03.2024;03:30;13,60
28.03.2024;03:15;13,60
28.03.2024;03:00;13,60
28.03.2024;02:45;13,60
28.03.2024;02:30;13,60
28.03.2024;02:15;13,60
28.03.2024;02:00;13,60
28.03.2024;01:45;13,60
28.03.2024;01:30;13,60
28.03.2024;01:15;13,60
28.03.2024;01:00;13,60
28.03.2024;00:45;13,60
28.03.2024;00:30;13,64
28.03.2024;00:15;13,73
28.03.2024;00:00;13,64
27.03.2024;23:45;13,60
27.03.2024;23:30;13,60
27.03.2024;23:15;13,60
27.03.2024;23:00;13,60
27.03.2024;22:45;13,60
27.03.2024;22:30;13,60
27.03.2024;22:15;13,60
27.03.2024;22:00;13,60
27.03.2024;21:45;13,60
27.03.2024;21:30;13,60
27.03.2024;21:15;13,60
27.03.2024;21:00;13,60
27.03.2024;20:45;13,60
27.03.2024;20:30;13,60
27.03.2024;20:15;13,64
27.03.2024;20:00;13,60
27.03.2024;19:45;13,60
27.03.2024;19:30;13,60
27.03.2024;19:15;13,60
27.03.2024;19:00;13,60
27.03.2024;18:45;13,60
27.03.2024;18:30;13,60
27.03.2024;18:15;13,60
27.03.2024;18:00;13,60
27.03.2024;17:45;13,60
27.03.2024;17:30;13,60
27.03.2024;17:15;13,60
27.03.2024;17:00;13,60
27.03.2024;16:45;13,60
27.03.2024;16:30;13,60
27.03.2024;16:15;13,60
27.03.2024;16:00;13,60
27.03.2024;15:45;13,60
27.03.2024;15:30;13,60
27.03.2024;15:15;13,60
27.03.2024;15:00;13,60
27.03.2024;14:45;13,60
27.03.2024;14:30;13,60
27.03.2024;14:15;13,60
27.03.2024;14:00;13,60
27.03.2024;13:45;13,60
27.03.2024;13:30;13,60
27.03.2024;13:15;13,60
27.03.2024;13:00;13,60
27.03.2024;12:45;13,60
27.03.2024;12:30;13,60
27.03.2024;12:15;13,60
27.03.2024;12:00;13,60
27.03.2024;11:45;13,60
27.03.2024;11:30;13,60
27.03.2024;11:15;13,60
27.03.2024;11:00;13,60
27.03.2024;10:45;13,60
27.03.2024;10:30;13,57
27.03.2024;10:15;13,60
27.03.2024;10:00;13,60
27.03.2024;09:45;13,60
27.03.2024;09:30;13,60
27.03.2024;09:15;13,60
27.03.2024;09:00;13,60
27.03.2024;08:45;13,60
27.03.2024;08:30;13,60
27.03.2024;08:15;13,60
27.03.2024;08:00;13,60
27.03.2024;07:45;13,60
27.03.2024;07:30;13,60
27.03.2024;07:15;13,60
27.03.2024;07:00;13,60
27.03.2024;06:45;13,60
27.03.2024;06:30;13,60
27.03.2024;06:15;13,60
27.03.2024;06:00;13,60
27.03.2024;05:45;13,60
27.03.2024;05:30;13,60
27.03.2024;05:15;13,60
27.03.2024;05:00;13,60
27.03.2024;04:45;13,60
27.03.2024;04:30;13,60
27.03.2024;04:15;13,60
27.03.2024;04:00;13,60
27.03.2024;03:45;13,60
27.03.2024;03:30;13,60
27.03.2024;03:15;13,60
27.03.2024;03:00;13,60
27.03.2024;02:45;13,60
27.03.2024;02:30;13,60
27.03.2024;02:15;13,60
27.03.2024;02:00;13,60
27.03.2024;01:45;13,60
27.03.2024;01:30;13,60
27.03.2024;01:15;13,73
27.03.2024;01:00;13,60
27.03.2024;00:45;13,60
27.03.2024;00:30;13,60
27.03.2024;00:15;13,60
27.03.2024;00:00;13,60
26.03.2024;23:45;13,60
26.03.2024;23:30;13,60
26.03.2024;23:15;13,64
26.03.2024;23:00;13,64
26.03.2024;22:45;13,60
26.03.2024;22:30;13,60
26.03.2024;22:15;13,60
26.03.2024;22:00;13,64
26.03.2024;21:45;13,60
26.03.2024;21:30;13,60
26.03.2024;21:15;13,60
26.03.2024;21:00;13,60
26.03.2024;20:45;13,60
26.03.2024;20:30;13,60
26.03.2024;20:15;13,60
26.03.2024;20:00;13,73
26.03.2024;19:45;13,60
26.03.2024;19:30;13,60
26.03.2024;19:15;13,60
26.03.2024;19:00;13,60
26.03.2024;18:45;13,60
26.03.2024;18:30;13,60
26.03.2024;18:15;13,60
26.03.2024;18:00;13,60
26.03.2024;17:45;13,60
26.03.2024;17:30;13,60
26.03.2024;17:15;13,60
26.03.2024;17:00;13,60
26.03.2024;16:45;13,60
26.03.2024;16:30;13,60
26.03.2024;16:15;13,60
26.03.2024;16:00;13,60
26.03.2024;15:45;13,60
26.03.2024;15:30;13,60
26.03.2024;15:15;13,60
26.03.2024;15:00;13,60
26.03.2024;14:45;13,60
26.03.2024;14:30;13,60
26.03.2024;14:15;13,60
26.03.2024;14:00;13,64
26.03.2024;13:45;13,60
26.03.2024;13:30;13,60
26.03.2024;13:15;13,60
26.03.2024;13:00;13,60
26.03.2024;12:45;13,60
26.03.2024;12:30;13,60
26.03.2024;12:15;13,60
26.03.2024;12:00;13,60
26.03.2024;11:45;13,60
26.03.2024;11:30;13,60
26.03.2024;11:15;13,60
26.03.2024;11:00;13,60
26.03.2024;10:45;13,60
26.03.2024;10:30;13,57
26.03.2024;10:15;13,54
26.03.2024;10:00;13,60
26.03.2024;09:45;13,73
26.03.2024;09:30;13,60
26.03.2024;09:15;13,60
26.03.2024;09:00;13,60
26.03.2024;08:45;13,60
26.03.2024;08:30;13,60
26.03.2024;08:15;13,60
26.03.2024;08:00;13,60
26.03.2024;07:45;13,60
26.03.2024;07:30;13,60
26.03.2024;07:15;13,60
26.03.2024;07:00;13,60
26.03.2024;06:45;13,60
26.03.2024;06:30;13,60
26.03.2024;06:15;13,60
26.03.2024;06:00;13,60
26.03.2024;05:45;13,60
26.03.2024;05:30;13,60
26.03.2024;05:15;13,60
26.03.2024;05:00;13,60
26.03.2024;04:45;13,60
26.03.2024;04:30;13,60
26.03.2024;04:15;13,60
26.03.2024;04:00;13,64
26.03.2024;03:45;13,60
26.03.2024;03:30;13,60
26.03.2024;03:15;13,64
26.03.2024;03:00;13,64
26.03.2024;02:45;13,60
26.03.2024;02:30;13,64
26.03.2024;02:15;13,64
26.03.2024;02:00;13,64
26.03.2024;01:45;13,64
26.03.2024;01:30;13,64
26.03.2024;01:15;13,64
26.03.2024;01:00;13,67
26.03.2024;00:45;13,67
26.03.2024;00:30;13,67
26.03.2024;00:15;13,67
26.03.2024;00:00;13,67
25.03.2024;23:45;13,67
25.03.2024;23:30;13,64
25.03.2024;23:15;13,67
25.03.2024;23:00;13,67
25.03.2024;22:45;13,64
25.03.2024;22:30;13,64
25.03.2024;22:15;13,67
25.03.2024;22:00;13,64
25.03.2024;21:45;13,67
25.03.2024;21:30;13,64
25.03.2024;21:15;13,64
25.03.2024;21:00;13,67
25.03.2024;20:45;13,67
25.03.2024;20:30;13,67
25.03.2024;20:15;13,64
25.03.2024;20:00;13,67
25.03.2024;19:45;13,67
25.03.2024;19:30;13,67
25.03.2024;19:15;13,67
25.03.2024;19:00;13,64
25.03.2024;18:45;13,67
25.03.2024;18:30;13,67
25.03.2024;18:15;13,64
25.03.2024;18:00;13,64
25.03.2024;17:45;13,64
25.03.2024;17:30;13,64
25.03.2024;17:15;13,64
25.03.2024;17:00;13,64
25.03.2024;16:45;13,64
25.03.2024;16:30;13,64
25.03.2024;16:15;13,64
25.03.2024;16:00;13,64
25.03.2024;15:45;13,64
25.03.2024;15:30;13,64
25.03.2024;15:15;13,64
25.03.2024;15:00;13,64
25.03.2024;14:45;13,64
25.03.2024;14:30;13,64
25.03.2024;14:15;13,64
25.03.2024;14:00;13,64
25.03.2024;13:45;13,64
25.03.2024;13:30;13,64
25.03.2024;13:15;13,64
25.03.2024;13:00;13,64
25.03.2024;12:45;13,64
25.03.2024;12:30;13,64
25.03.2024;12:15;13,64
25.03.2024;12:00;13,64
25.03.2024;11:45;13,64
25.03.2024;11:30;13,64
25.03.2024;11:15;13,64
25.03.2024;11:00;13,64
25.03.2024;10:45;13,64
25.03.2024;10:30;13,60
25.03.2024;10:15;13,60
25.03.2024;10:00;13,64
25.03.2024;09:45;13,64
25.03.2024;09:30;13,64
25.03.2024;09:15;13,64
25.03.2024;09:00;13,67
25.03.2024;08:45;13,67
25.03.2024;08:30;13,67
25.03.2024;08:15;13,67
25.03.2024;08:00;13,64
25.03.2024;07:45;13,67
25.03.2024;07:30;13,67
25.03.2024;07:15;13,67
25.03.2024;07:00;13,67
25.03.2024;06:45;13,67
25.03.2024;06:30;13,67
25.03.2024;06:15;13,67
25.03.2024;06:00;13,67
25.03.2024;05:45;13,67
25.03.2024;05:30;13,67
25.03.2024;05:15;13,67
25.03.2024;05:00;13,67
25.03.2024;04:45;13,67
25.03.2024;04:30;13,67
25.03.2024;04:15;13,67
25.03.2024;04:00;13,67
25.03.2024;03:45;13,67
25.03.2024;03:30;13,67
25.03.2024;03:15;13,67
25.03.2024;03:00;13,67
25.03.2024;02:45;13,67
25.03.2024;02:30;13,67
25.03.2024;02:15;13,67
25.03.2024;02:00;13,67
25.03.2024;01:45;13,67
25.03.2024;01:30;13,67
25.03.2024;01:15;13,67
25.03.2024;01:00;13,64
25.03.2024;00:45;13,64
25.03.2024;00:30;13,64
25.03.2024;00:15;13,67
25.03.2024;00:00;13,67
24.03.2024;23:45;13,64
24.03.2024;23:30;13,64
24.03.2024;23:15;13,67
24.03.2024;23:00;13,67
24.03.2024;22:45;13,67
24.03.2024;22:30;13,64
24.03.2024;22:15;13,67
24.03.2024;22:00;13,67
24.03.2024;21:45;13,64
24.03.2024;21:30;13,64
24.03.2024;21:15;13,64
24.03.2024;21:00;13,67
24.03.2024;20:45;13,67
24.03.2024;20:30;13,67
24.03.2024;20:15;13,67
24.03.2024;20:00;13,67
24.03.2024;19:45;13,67
24.03.2024;19:30;13,67
24.03.2024;19:15;13,67
24.03.2024;19:00;13,67
24.03.2024;18:45;13,67
24.03.2024;18:30;13,67
24.03.2024;18:15;13,67
24.03.2024;18:00;13,67
24.03.2024;17:45;13,64
24.03.2024;17:30;13,67
24.03.2024;17:15;13,64
24.03.2024;17:00;13,64
24.03.2024;16:45;13,64
24.03.2024;16:30;13,67
24.03.2024;16:15;13,64
24.03.2024;16:00;13,67
24.03.2024;15:45;13,67
24.03.2024;15:30;13,64
24.03.2024;15:15;13,64
24.03.2024;15:00;13,67
24.03.2024;14:45;13,67
24.03.2024;14:30;13,64
24.03.2024;14:15;13,67
24.03.2024;14:00;13,64
24.03.2024;13:45;13,64
24.03.2024;13:30;13,60
24.03.2024;13:15;13,64
24.03.2024;13:00;13,60
24.03.2024;12:45;13,60
24.03.2024;12:30;13,64
24.03.2024;12:15;13,64
24.03.2024;12:00;13,64
24.03.2024;11:45;13,64
24.03.2024;11:30;13,64
24.03.2024;11:15;13,64
24.03.2024;11:00;13,64
24.03.2024;10:45;13,64
24.03.2024;10:30;13,60
24.03.2024;10:15;13,60
24.03.2024;10:00;13,64
24.03.2024;09:45;13,64
24.03.2024;09:30;13,67
24.03.2024;09:15;13,67
24.03.2024;09:00;13,67
24.03.2024;08:45;13,67
24.03.2024;08:30;13,67
24.03.2024;08:15;13,67
24.03.2024;08:00;13,67
24.03.2024;07:45;13,67
24.03.2024;07:30;13,67
24.03.2024;07:15;13,67
24.03.2024;07:00;13,67
24.03.2024;06:45;13,67
24.03.2024;06:30;13,67
24.03.2024;06:15;13,67
24.03.2024;06:00;13,67
24.03.2024;05:45;13,67
24.03.2024;05:30;13,67
24.03.2024;05:15;13,67
24.03.2024;05:00;13,67
24.03.2024;04:45;13,67
24.03.2024;04:30;13,67
24.03.2024;04:15;13,67
24.03.2024;04:00;13,67
24.03.2024;03:45;13,67
24.03.2024;03:30;13,67
24.03.2024;03:15;13,67
24.03.2024;03:00;13,67
24.03.2024;02:45;13,67
24.03.2024;02:30;13,67
24.03.2024;02:15;13,67
24.03.2024;02:00;13,64
24.03.2024;01:45;13,67
24.03.2024;01:30;13,67
24.03.2024;01:15;13,64
24.03.2024;01:00;13,67
24.03.2024;00:45;13,67
24.03.2024;00:30;13,67
24.03.2024;00:15;13,64
24.03.2024;00:00;13,64
23.03.2024;23:45;13,64
23.03.2024;23:30;13,64
23.03.2024;23:15;13,64
23.03.2024;23:00;13,67
23.03.2024;22:45;13,67
23.03.2024;22:30;13,64
23.03.2024;22:15;13,64
23.03.2024;22:00;13,64
23.03.2024;21:45;13,64
23.03.2024;21:30;13,64
23.03.2024;21:15;13,64
23.03.2024;21:00;13,64
23.03.2024;20:45;13,64
23.03.2024;20:30;13,64
23.03.2024;20:15;13,64
23.03.2024;20:00;13,64
23.03.2024;19:45;13,64
23.03.2024;19:30;13,64
23.03.2024;19:15;13,64
23.03.2024;19:00;13,64
23.03.2024;18:45;13,64
23.03.2024;18:30;13,64
23.03.2024;18:15;13,64
23.03.2024;18:00;13,64
23.03.2024;17:45;13,64
23.03.2024;17:30;13,64
23.03.2024;17:15;13,64
23.03.2024;17:00;13,64
23.03.2024;16:45;13,64
23.03.2024;16:30;13,64
23.03.2024;16:15;13,79
23.03.2024;16:00;13,67
23.03.2024;15:45;13,67
23.03.2024;15:30;13,67
23.03.2024;15:15;13,67
23.03.2024;15:00;13,67
23.03.2024;14:45;13,67
23.03.2024;14:30;13,64
23.03.2024;14:15;13,64
23.03.2024;14:00;13,64
23.03.2024;13:45;13,64
23.03.2024;13:30;13,64
23.03.2024;13:15;13,64
23.03.2024;13:00;13,67
23.03.2024;12:45;13,64
23.03.2024;12:30;13,64
23.03.2024;12:15;13,64
23.03.2024;12:00;13,64
23.03.2024;11:45;13,64
23.03.2024;11:30;13,67
23.03.2024;11:15;13,64
23.03.2024;11:00;13,64
23.03.2024;10:45;13,64
23.03.2024;10:30;13,60
23.03.2024;10:15;13,60
23.03.2024;10:00;13,64
23.03.2024;09:45;13,64
23.03.2024;09:30;13,64
23.03.2024;09:15;13,64
23.03.2024;09:00;13,67
23.03.2024;08:45;13,64
23.03.2024;08:30;13,67
23.03.2024;08:15;13,67
23.03.2024;08:00;13,67
23.03.2024;07:45;13,67
23.03.2024;07:30;13,67
23.03.2024;07:15;13,67
23.03.2024;07:00;13,67
23.03.2024;06:45;13,67
23.03.2024;06:30;13,67
23.03.2024;06:15;13,67
23.03.2024;06:00;13,67
23.03.2024;05:45;13,67
23.03.2024;05:30;13,67
23.03.2024;05:15;13,67
23.03.2024;05:00;13,67
23.03.2024;04:45;13,67
23.03.2024;04:30;13,67
23.03.2024;04:15;13,67
23.03.2024;04:00;13,67
23.03.2024;03:45;13,67
23.03.2024;03:30;13,67
23.03.2024;03:15;13,67
23.03.2024;03:00;13,67
23.03.2024;02:45;13,67
23.03.2024;02:30;13,67
23.03.2024;02:15;13,67
23.03.2024;02:00;13,67
23.03.2024;01:45;13,67
23.03.2024;01:30;13,67
23.03.2024;01:15;13,67
23.03.2024;01:00;13,67
23.03.2024;00:45;13,67
23.03.2024;00:30;13,67
23.03.2024;00:15;13,67
23.03.2024;00:00;13,67
22.03.2024;23:45;13,67
22.03.2024;23:30;13,67
22.03.2024;23:15;13,67
22.03.2024;23:00;13,67
22.03.2024;22:45;13,67
22.03.2024;22:30;13,67
22.03.2024;22:15;13,67
22.03.2024;22:00;13,67
22.03.2024;21:45;13,67
22.03.2024;21:30;13,67
22.03.2024;21:15;13,67
22.03.2024;21:00;13,67
22.03.2024;20:45;13,67
22.03.2024;20:30;13,67
22.03.2024;20:15;13,67
22.03.2024;20:00;13,67
22.03.2024;19:45;13,67
22.03.2024;19:30;13,67
22.03.2024;19:15;13,67
22.03.2024;19:00;13,67
22.03.2024;18:45;13,67
22.03.2024;18:30;13,67
22.03.2024;18:15;13,67
22.03.2024;18:00;13,67
22.03.2024;17:45;13,67
22.03.2024;17:30;13,67
22.03.2024;17:15;13,67
22.03.2024;17:00;13,67
22.03.2024;16:45;13,67
22.03.2024;16:30;13,67
22.03.2024;16:15;13,67
22.03.2024;16:00;13,67
22.03.2024;15:45;13,67
22.03.2024;15:30;13,67
22.03.2024;15:15;13,67
22.03.2024;15:00;13,67
22.03.2024;14:45;13,67
22.03.2024;14:30;13,67
22.03.2024;14:15;13,67
22.03.2024;14:00;13,67
22.03.2024;13:45;13,67
22.03.2024;13:30;13,67
22.03.2024;13:15;13,67
22.03.2024;13:00;13,67
22.03.2024;12:45;13,67
22.03.2024;12:30;13,67
22.03.2024;12:15;13,67
22.03.2024;12:00;13,67
22.03.2024;11:45;13,67
22.03.2024;11:30;13,67
22.03.2024;11:15;13,67
22.03.2024;11:00;13,64
22.03.2024;10:45;13,67
22.03.2024;10:30;13,60
22.03.2024;10:15;13,60
22.03.2024;10:00;13,64
22.03.2024;09:45;13,64
22.03.2024;09:30;13,64
22.03.2024;09:15;13,64
22.03.2024;09:00;13,60
22.03.2024;08:45;13,64
22.03.2024;08:30;13,60
22.03.2024;08:15;13,60
22.03.2024;08:00;13,60
22.03.2024;07:45;13,60
22.03.2024;07:30;13,64
22.03.2024;07:15;13,60
22.03.2024;07:00;13,64
22.03.2024;06:45;13,64
22.03.2024;06:30;13,64
22.03.2024;06:15;13,64
22.03.2024;06:00;13,64
22.03.2024;05:45;13,64
22.03.2024;05:30;13,64
22.03.2024;05:15;13,64
22.03.2024;05:00;13,64
22.03.2024;04:45;13,64
22.03.2024;04:30;13,64
22.03.2024;04:15;13,64
22.03.2024;04:00;13,64
22.03.2024;03:45;13,64
22.03.2024;03:30;13,64
22.03.2024;03:15;13,64
22.03.2024;03:00;13,64
22.03.2024;02:45;13,64
22.03.2024;02:30;13,64
22.03.2024;02:15;13,64
22.03.2024;02:00;13,64
22.03.2024;01:45;13,64
22.03.2024;01:30;13,64
22.03.2024;01:15;13,64
22.03.2024;01:00;13,64
22.03.2024;00:45;13,64
22.03.2024;00:30;13,64
22.03.2024;00:15;13,64
22.03.2024;00:00;13,64
21.03.2024;23:45;13,64
21.03.2024;23:30;13,64
21.03.2024;23:15;13,64
21.03.2024;23:00;13,64
21.03.2024;22:45;13,64
21.03.2024;22:30;13,64
21.03.2024;22:15;13,64
21.03.2024;22:00;13,64
21.03.2024;21:45;13,64
21.03.2024;21:30;13,64
21.03.2024;21:15;13,64
21.03.2024;21:00;13,64
21.03.2024;20:45;13,64
21.03.2024;20:30;13,64
21.03.2024;20:15;13,64
21.03.2024;20:00;13,64
21.03.2024;19:45;13,64
21.03.2024;19:30;13,64
21.03.2024;19:15;13,64
21.03.2024;19:00;13,64
21.03.2024;18:45;13,64
21.03.2024;18:30;13,64
21.03.2024;18:15;13,64
21.03.2024;18:00;13,67
21.03.2024;17:45;13,64
21.03.2024;17:30;13,64
21.03.2024;17:15;13,64
21.03.2024;17:00;13,64
21.03.2024;16:45;13,64
21.03.2024;16:30;13,64
21.03.2024;16:15;13,64
21.03.2024;16:00;13,67
21.03.2024;15:45;13,64
21.03.2024;15:30;13,67
21.03.2024;15:15;13,67
21.03.2024;15:00;13,67
21.03.2024;14:45;13,67
21.03.2024;14:30;13,67
21.03.2024;14:15;13,67
21.03.2024;14:00;13,67
21.03.2024;13:45;13,67
21.03.2024;13:30;13,67
21.03.2024;13:15;13,67
21.03.2024;13:00;13,67
21.03.2024;12:45;13,67
21.03.2024;12:30;13,67
21.03.2024;12:15;13,67
21.03.2024;12:00;13,67
21.03.2024;11:45;13,67
21.03.2024;11:30;13,67
21.03.2024;11:15;13,67
21.03.2024;11:00;13,67
21.03.2024;10:45;13,67
21.03.2024;10:30;13,60
21.03.2024;10:15;13,60
21.03.2024;10:00;13,67
21.03.2024;09:45;13,67
21.03.2024;09:30;13,67
21.03.2024;09:15;13,67
21.03.2024;09:00;13,67
21.03.2024;08:45;13,67
21.03.2024;08:30;13,67
21.03.2024;08:15;13,67
21.03.2024;08:00;13,67
21.03.2024;07:45;13,67
21.03.2024;07:30;13,67
21.03.2024;07:15;13,67
21.03.2024;07:00;13,67
21.03.2024;06:45;13,67
21.03.2024;06:30;13,67
21.03.2024;06:15;13,67
21.03.2024;06:00;13,67
21.03.2024;05:45;13,67
21.03.2024;05:30;13,67
21.03.2024;05:15;13,67
21.03.2024;05:00;13,67
21.03.2024;04:45;13,67
21.03.2024;04:30;13,67
21.03.2024;04:15;13,67
21.03.2024;04:00;13,67
21.03.2024;03:45;13,67
21.03.2024;03:30;13,67
21.03.2024;03:15;13,67
21.03.2024;03:00;13,67
21.03.2024;02:45;13,67
21.03.2024;02:30;13,67
21.03.2024;02:15;13,67
21.03.2024;02:00;13,67
21.03.2024;01:45;13,67
21.03.2024;01:30;13,67
21.03.2024;01:15;13,67
21.03.2024;01:00;13,67
21.03.2024;00:45;13,67
21.03.2024;00:30;13,67
21.03.2024;00:15;13,67
21.03.2024;00:00;13,67
20.03.2024;23:45;13,67
20.03.2024;23:30;13,67
20.03.2024;23:15;13,67
20.03.2024;23:00;13,67
20.03.2024;22:45;13,67
20.03.2024;22:30;13,67
20.03.2024;22:15;13,67
20.03.2024;22:00;13,67
20.03.2024;21:45;13,67
20.03.2024;21:30;13,67
20.03.2024;21:15;13,67
20.03.2024;21:00;13,67
20.03.2024;20:45;13,67
20.03.2024;20:30;13,67
20.03.2024;20:15;13,67
20.03.2024;20:00;13,67
20.03.2024;19:45;13,67
20.03.2024;19:30;13,67
20.03.2024;19:15;13,67
20.03.2024;19:00;13,67
20.03.2024;18:45;13,67
20.03.2024;18:30;13,67
20.03.2024;18:15;13,67
20.03.2024;18:00;13,67
20.03.2024;17:45;13,67
20.03.2024;17:30;13,67
20.03.2024;17:15;13,67
20.03.2024;17:00;13,67
20.03.2024;16:45;13,67
20.03.2024;16:30;13,67
20.03.2024;16:15;13,67
20.03.2024;16:00;13,67
20.03.2024;15:45;13,67
20.03.2024;15:30;13,67
20.03.2024;15:15;13,67
20.03.2024;15:00;13,67
20.03.2024;14:45;13,67
20.03.2024;14:30;13,67
20.03.2024;14:15;13,67
20.03.2024;14:00;13,67
20.03.2024;13:45;13,67
20.03.2024;13:30;13,67
20.03.2024;13:15;13,67
20.03.2024;13:00;13,67
20.03.2024;12:45;13,67
20.03.2024;12:30;13,67
20.03.2024;12:15;13,67
20.03.2024;12:00;13,67
20.03.2024;11:45;13,67
20.03.2024;11:30;13,67
20.03.2024;11:15;13,67
20.03.2024;11:00;13,67
20.03.2024;10:45;13,67
20.03.2024;10:30;13,60
20.03.2024;10:15;13,64
20.03.2024;10:00;13,67
20.03.2024;09:45;13,79
20.03.2024;09:30;13,67
20.03.2024;09:15;13,67
20.03.2024;09:00;13,67
20.03.2024;08:45;13,67
20.03.2024;08:30;13,67
20.03.2024;08:15;13,67
20.03.2024;08:00;13,67
20.03.2024;07:45;13,67
20.03.2024;07:30;13,67
20.03.2024;07:15;13,67
20.03.2024;07:00;13,67
20.03.2024;06:45;13,67
20.03.2024;06:30;13,67
20.03.2024;06:15;13,67
20.03.2024;06:00;13,67
20.03.2024;05:45;13,67
20.03.2024;05:30;13,67
20.03.2024;05:15;13,67
20.03.2024;05:00;13,67
20.03.2024;04:45;13,67
20.03.2024;04:30;13,67
20.03.2024;04:15;13,67
20.03.2024;04:00;13,67
20.03.2024;03:45;13,67
20.03.2024;03:30;13,67
20.03.2024;03:15;13,67
20.03.2024;03:00;13,67
20.03.2024;02:45;13,67
20.03.2024;02:30;13,67
20.03.2024;02:15;13,67
20.03.2024;02:00;13,67
20.03.2024;01:45;13,67
20.03.2024;01:30;13,67
20.03.2024;01:15;13,67
20.03.2024;01:00;13,67
20.03.2024;00:45;13,67
20.03.2024;00:30;13,67
20.03.2024;00:15;13,67
20.03.2024;00:00;13,67
19.03.2024;23:45;13,67
19.03.2024;23:30;13,67
19.03.2024;23:15;13,67
19.03.2024;23:00;13,67
19.03.2024;22:45;13,67
19.03.2024;22:30;13,67
19.03.2024;22:15;13,67
19.03.2024;22:00;13,67
19.03.2024;21:45;13,67
19.03.2024;21:30;13,67
19.03.2024;21:15;13,67
19.03.2024;21:00;13,67
19.03.2024;20:45;13,67
19.03.2024;20:30;13,67
19.03.2024;20:15;13,67
19.03.2024;20:00;13,67
19.03.2024;19:45;13,67
19.03.2024;19:30;13,67
19.03.2024;19:15;13,67
19.03.2024;19:00;13,67
19.03.2024;18:45;13,67
19.03.2024;18:30;13,67
19.03.2024;18:15;13,67
19.03.2024;18:00;13,67
19.03.2024;17:45;13,67
19.03.2024;17:30;13,67
19.03.2024;17:15;13,67
19.03.2024;17:00;13,67
19.03.2024;16:45;13,67
19.03.2024;16:30;13,67
19.03.2024;16:15;13,67
19.03.2024;16:00;13,67
19.03.2024;15:45;13,67
19.03.2024;15:30;13,67
19.03.2024;15:15;13,67
19.03.2024;15:00;13,67
19.03.2024;14:45;13,67
19.03.2024;14:30;13,67
19.03.2024;14:15;13,67
19.03.2024;14:00;13,67
19.03.2024;13:45;13,67
19.03.2024;13:30;13,67
19.03.2024;13:15;13,67
19.03.2024;13:00;13,67
19.03.2024;12:45;13,67
19.03.2024;12:30;13,67
19.03.2024;12:15;13,67
19.03.2024;12:00;13,67
19.03.2024;11:45;13,67
19.03.2024;11:30;13,67
19.03.2024;11:15;13,67
19.03.2024;11:00;13,67
19.03.2024;10:45;13,67
19.03.2024;10:30;13,60
19.03.2024;10:15;13,60
19.03.2024;10:00;13,67
19.03.2024;09:45;13,67
19.03.2024;09:30;13,67
19.03.2024;09:15;13,67
19.03.2024;09:00;13,67
19.03.2024;08:45;13,67
19.03.2024;08:30;13,67
19.03.2024;08:15;13,67
19.03.2024;08:00;13,67
19.03.2024;07:45;13,79
19.03.2024;07:30;13,67
19.03.2024;07:15;13,67
19.03.2024;07:00;13,67
19.03.2024;06:45;13,67
19.03.2024;06:30;13,67
19.03.2024;06:15;13,67
19.03.2024;06:00;13,67
19.03.2024;05:45;13,67
19.03.2024;05:30;13,67
19.03.2024;05:15;13,67
19.03.2024;05:00;13,67
19.03.2024;04:45;13,67
19.03.2024;04:30;13,67
19.03.2024;04:15;13,67
19.03.2024;04:00;13,67
19.03.2024;03:45;13,67
19.03.2024;03:30;13,67
19.03.2024;03:15;13,67
19.03.2024;03:00;13,67
19.03.2024;02:45;13,67
19.03.2024;02:30;13,67
19.03.2024;02:15;13,67
19.03.2024;02:00;13,67
19.03.2024;01:45;13,67
19.03.2024;01:30;13,67
19.03.2024;01:15;13,67
19.03.2024;01:00;13,67
19.03.2024;00:45;13,67
19.03.2024;00:30;13,67
19.03.2024;00:15;13,67
19.03.2024;00:00;13,67
18.03.2024;23:45;13,67
18.03.2024;23:30;13,67
18.03.2024;23:15;13,67
18.03.2024;23:00;13,67
18.03.2024;22:45;13,67
18.03.2024;22:30;13,67
18.03.2024;22:15;13,67
18.03.2024;22:00;13,67
18.03.2024;21:45;13,67
18.03.2024;21:30;13,67
18.03.2024;21:15;13,67
18.03.2024;21:00;13,67
18.03.2024;20:45;13,67
18.03.2024;20:30;13,67
18.03.2024;20:15;13,67
18.03.2024;20:00;13,67
18.03.2024;19:45;13,67
18.03.2024;19:30;13,67
18.03.2024;19:15;13,67
18.03.2024;19:00;13,67
18.03.2024;18:45;13,67
18.03.2024;18:30;13,67
18.03.2024;18:15;13,67
18.03.2024;18:00;13,67
18.03.2024;17:45;13,67
18.03.2024;17:30;13,67
18.03.2024;17:15;13,67